Flag for United Kingdom Weather past 2 weeks in Glasgow, Scotland, United Kingdom

52 °F

Low clouds.

Feels Like: 49 °F
Forecast: N/A
Wind: 9 mph from Southwest

Location: Glasgow Airport

Current Time: Nov 26, 2015 at 4:53:24 PM

Latest Report: Nov 26, 2015 at 4:20 PM

Visibility: N/A

Pressure: 29.95 "Hg

Humidity: 100%

Dew point: 52 °F

Location of GlasgowLocation

Historic Weather in Glasgow — Graph


Glasgow temperature yesterday

Maximum temperature yesterday: 48 °F (at 11:20 AM)
Minimum temperature yesterday: 39 °F (at 1:20 AM)
Average temperature yesterday: 46 °F

Past Weeks' High & Low Weather Summary

High59 °F (Nov 15, 5:50 PM)100% (Nov 14, 8:20 PM)30.21 "Hg (Nov 14, 8:20 PM)
Low28 °F (Nov 22, 8:20 PM)56% (Nov 21, 3:20 AM)29.12 "Hg (Nov 16, 1:20 AM)
Average44 °F85%29.69 "Hg
* Reported Nov 11 3:20 PM — Nov 26 3:20 PM, Glasgow, Weather by CustomWeather, © 2015

Note: Actual official high and low records may vary slightly from our data, if they occured in-between our weather recording intervals... More about our weather records


Glasgow weather history for previous 24 hours

Time TempWeatherWind HumidityBarometerVisibility
3:20 PM
Thu, Nov 26
52 °FLight rain. Low clouds.14 mph100%29.95 "Hg2 mi
2:50 PM52 °FFog.14 mph100%29.95 "Hg3 mi
2:20 PM52 °FLow clouds.13 mph100%29.95 "HgN/A
1:50 PM52 °FLow clouds.9 mph100%29.95 "HgN/A
1:20 PM54 °FDrizzle. Partly sunny.12 mph94%29.95 "Hg3 mi
12:50 PM54 °FDrizzle. Low clouds.15 mph94%29.98 "Hg3 mi
12:20 PM52 °FPartly sunny.12 mph100%29.98 "Hg4 mi
11:50 AM52 °FLow clouds.12 mph94%29.98 "HgN/A
11:20 AM52 °FPartly sunny.10 mph94%30.01 "HgN/A
10:50 AM52 °FLow clouds.7 mph94%30.01 "HgN/A
10:20 AM52 °FLow clouds.7 mph94%30.01 "HgN/A
9:50 AM50 °FMostly cloudy.7 mph94%30.01 "HgN/A
9:20 AM50 °FMostly cloudy.9 mph94%30.01 "HgN/A
8:50 AM50 °FLow clouds.9 mph94%30.01 "HgN/A
8:20 AM50 °FPartly sunny.9 mph88%30.01 "HgN/A
7:50 AM50 °FOvercast.12 mph88%30.01 "HgN/A
7:20 AM48 °FOvercast.9 mph94%30.01 "HgN/A
6:50 AM50 °FOvercast.9 mph88%30.01 "HgN/A
6:20 AM50 °FOvercast.5 mph82%30.01 "HgN/A
5:50 AM48 °FOvercast.6 mph87%30.01 "HgN/A
5:20 AM48 °FPassing clouds.7 mph87%30.01 "HgN/A
4:50 AM48 °FPassing clouds.7 mph87%30.01 "HgN/A
3:50 AM48 °FOvercast.7 mph87%29.98 "HgN/A
3:20 AM48 °FOvercast.7 mph87%29.98 "HgN/A
2:50 AM48 °FOvercast.7 mph87%29.98 "HgN/A
2:20 AM48 °FPassing clouds.6 mph82%30.01 "HgN/A
1:50 AM46 °FOvercast.7 mph93%29.98 "HgN/A
1:20 AM48 °FOvercast.8 mph82%29.98 "HgN/A
12:20 AM46 °FOvercast.9 mph87%29.98 "Hg6 mi
11:50 PM
Wed, Nov 25
46 °FPassing clouds.8 mph87%29.98 "HgN/A
11:20 PM46 °FPassing clouds.7 mph82%29.98 "HgN/A
10:50 PM46 °FPassing clouds.8 mph87%29.98 "HgN/A
10:20 PM46 °FMostly cloudy.9 mph93%29.98 "HgN/A
9:50 PM46 °FMostly cloudy.6 mph93%29.98 "HgN/A
9:20 PM46 °FPassing clouds.7 mph93%29.98 "HgN/A
8:50 PM45 °FPartly cloudy.6 mph93%29.98 "HgN/A
8:20 PM48 °FMostly cloudy.7 mph87%29.98 "HgN/A
7:50 PM48 °FPassing clouds.7 mph87%29.98 "HgN/A
7:20 PM46 °FPassing clouds.5 mph87%29.98 "HgN/A
6:50 PM48 °FOvercast.6 mph82%29.95 "HgN/A
6:20 PM48 °FOvercast.6 mph82%29.95 "HgN/A
5:50 PM46 °FPassing clouds.8 mph87%29.95 "HgN/A
5:20 PM46 °FPassing clouds.7 mph87%29.92 "HgN/A
4:50 PM48 °FOvercast.9 mph82%29.92 "HgN/A
4:20 PM48 °FMostly cloudy.7 mph82%29.92 "HgN/A
Weather by CustomWeather, © 2015

See weather overviewHow to use our weather pages